timestamp,wind_dir_avg,wind_spd_max_dir,wind_spd_avg,wind_spd_gust,battery_voltage,lat,long
2019-02-17 00:00:00+00:00,183.0,189.0,16.93,21.53,,47.59359,-54.27349
2019-02-17 00:10:00+00:00,181.0,172.0,16.28,20.42,,47.59359,-54.27349
2019-02-17 00:20:00+00:00,189.0,186.0,18.43,22.54,,47.59359,-54.27349
2019-02-17 00:30:00+00:00,188.0,190.0,17.17,22.54,,47.59359,-54.27349
2019-02-17 00:40:00+00:00,186.0,193.0,16.3,19.1,,47.59359,-54.27349
2019-02-17 00:50:00+00:00,180.0,184.0,17.11,19.85,,47.59359,-54.27349
2019-02-17 01:00:00+00:00,182.0,181.0,15.33,17.44,,47.59359,-54.27349
2019-02-17 01:10:00+00:00,182.0,175.0,16.63,19.53,,47.59359,-54.27349
2019-02-17 01:20:00+00:00,177.0,180.0,15.83,17.83,,47.59359,-54.27349
2019-02-17 01:30:00+00:00,179.0,175.0,16.39,19.66,,47.59359,-54.27349
2019-02-17 01:40:00+00:00,176.0,174.0,15.37,18.11,,47.59359,-54.27349
2019-02-17 01:50:00+00:00,179.0,175.0,13.84,15.27,,47.59359,-54.27349
2019-02-17 02:00:00+00:00,175.0,176.0,15.76,18.15,,47.59359,-54.27349
2019-02-17 02:10:00+00:00,173.0,179.0,12.86,15.48,,47.59359,-54.27349
2019-02-17 02:20:00+00:00,170.0,163.0,16.05,19.51,,47.59359,-54.27349
2019-02-17 02:30:00+00:00,171.0,171.0,15.69,19.32,,47.59359,-54.27349
2019-02-17 02:40:00+00:00,173.0,165.0,17.77,19.58,,47.59359,-54.27349
2019-02-17 02:50:00+00:00,171.0,178.0,15.27,17.27,,47.59359,-54.27349
2019-02-17 03:00:00+00:00,174.0,172.0,15.8,19.28,,47.59359,-54.27349
2019-02-17 03:10:00+00:00,176.0,178.0,17.69,21.17,,47.59359,-54.27349
2019-02-17 03:20:00+00:00,178.0,174.0,17.91,21.05,,47.59359,-54.27349
2019-02-17 03:30:00+00:00,176.0,175.0,19.53,22.28,,47.59359,-54.27349
2019-02-17 03:40:00+00:00,177.0,180.0,17.61,21.3,,47.59359,-54.27349
2019-02-17 03:50:00+00:00,180.0,170.0,17.84,23.19,,47.59359,-54.27349
2019-02-17 04:00:00+00:00,184.0,176.0,20.1,23.81,,47.59359,-54.27349
2019-02-17 04:10:00+00:00,182.0,185.0,17.5,21.49,,47.59359,-54.27349
2019-02-17 04:20:00+00:00,182.0,181.0,18.12,21.39,,47.59359,-54.27349
2019-02-17 04:30:00+00:00,197.0,195.0,14.77,18.34,,47.59359,-54.27349
2019-02-17 04:40:00+00:00,197.0,203.0,16.62,21.85,,47.59359,-54.27349
2019-02-17 04:50:00+00:00,198.0,198.0,18.71,21.25,,47.59359,-54.27349
2019-02-17 05:00:00+00:00,205.0,203.0,17.14,20.72,,47.59359,-54.27349
2019-02-17 05:10:00+00:00,210.0,207.0,14.79,18.11,,47.59359,-54.27349
2019-02-17 05:20:00+00:00,222.0,222.0,11.56,14.4,,47.59359,-54.27349
2019-02-17 05:30:00+00:00,248.0,240.0,11.63,14.28,,47.59359,-54.27349
2019-02-17 05:40:00+00:00,240.0,248.0,10.09,12.71,,47.59359,-54.27349
2019-02-17 05:50:00+00:00,237.0,239.0,9.36,11.17,,47.59359,-54.27349
2019-02-17 06:00:00+00:00,251.0,252.0,9.39,11.11,,47.59359,-54.27349
2019-02-17 06:10:00+00:00,245.0,250.0,10.09,12.55,,47.59359,-54.27349
2019-02-17 06:20:00+00:00,243.0,248.0,13.11,16.13,,47.59359,-54.27349
2019-02-17 06:30:00+00:00,244.0,238.0,11.0,13.32,,47.59359,-54.27349
2019-02-17 06:40:00+00:00,243.0,257.0,10.22,11.88,,47.59359,-54.27349
2019-02-17 06:50:00+00:00,241.0,239.0,9.36,10.58,,47.59359,-54.27349
2019-02-17 07:00:00+00:00,241.0,241.0,8.3,9.86,,47.59359,-54.27349
2019-02-17 07:10:00+00:00,242.0,238.0,8.65,9.83,,47.59359,-54.27349
2019-02-17 07:20:00+00:00,231.0,236.0,9.12,10.69,,47.59359,-54.27349
2019-02-17 07:30:00+00:00,236.0,238.0,8.53,10.53,,47.59359,-54.27349
2019-02-17 07:40:00+00:00,232.0,237.0,7.67,9.22,,47.59359,-54.27349
2019-02-17 07:50:00+00:00,233.0,234.0,7.49,8.68,,47.59359,-54.27349
2019-02-17 08:00:00+00:00,234.0,232.0,7.05,7.98,,47.59359,-54.27349
2019-02-17 08:10:00+00:00,240.0,246.0,7.16,8.41,,47.59359,-54.27349
2019-02-17 08:20:00+00:00,243.0,244.0,6.73,7.96,,47.59359,-54.27349
2019-02-17 08:30:00+00:00,251.0,250.0,7.61,8.31,,47.59359,-54.27349
2019-02-17 08:40:00+00:00,246.0,241.0,9.14,9.73,,47.59359,-54.27349
2019-02-17 08:50:00+00:00,242.0,245.0,7.35,8.14,,47.59359,-54.27349
2019-02-17 09:00:00+00:00,242.0,238.0,6.18,6.48,,47.59359,-54.27349
2019-02-17 09:20:00+00:00,239.0,244.0,5.98,6.17,,47.59359,-54.27349
2019-02-17 09:40:00+00:00,249.0,251.0,9.71,10.48,,47.59359,-54.27349
2019-02-17 10:50:00+00:00,245.0,247.0,4.24,4.54,,47.59359,-54.27349
2019-02-17 11:00:00+00:00,247.0,251.0,4.68,5.36,,47.59359,-54.27349
2019-02-17 11:10:00+00:00,238.0,238.0,5.53,6.29,,47.59359,-54.27349
2019-02-17 11:20:00+00:00,239.0,242.0,5.74,6.45,,47.59359,-54.27349
2019-02-17 11:30:00+00:00,235.0,239.0,5.36,6.37,,47.59359,-54.27349
2019-02-17 11:40:00+00:00,266.0,273.0,8.35,11.48,,47.59359,-54.27349
2019-02-17 11:50:00+00:00,273.0,274.0,8.83,10.81,,47.59359,-54.27349
2019-02-17 12:00:00+00:00,280.0,283.0,7.92,8.78,,47.59359,-54.27349
2019-02-17 12:10:00+00:00,287.0,290.0,8.97,10.01,,47.59359,-54.27349
2019-02-17 12:20:00+00:00,286.0,282.0,9.67,10.92,,47.59359,-54.27349
2019-02-17 12:30:00+00:00,305.0,308.0,10.19,12.28,,47.59359,-54.27349
2019-02-17 12:40:00+00:00,309.0,306.0,7.68,8.59,,47.59359,-54.27349
2019-02-17 12:50:00+00:00,302.0,307.0,7.13,8.92,,47.59359,-54.27349
2019-02-17 13:00:00+00:00,306.0,310.0,8.53,10.24,,47.59359,-54.27349
2019-02-17 13:10:00+00:00,314.0,307.0,7.7,9.58,,47.59359,-54.27349
2019-02-17 13:20:00+00:00,312.0,311.0,8.66,10.0,,47.59359,-54.27349
2019-02-17 13:30:00+00:00,294.0,300.0,10.61,13.08,,47.59359,-54.27349
2019-02-17 13:40:00+00:00,316.0,330.0,9.74,10.9,,47.59359,-54.27349
2019-02-17 13:50:00+00:00,307.0,303.0,12.08,13.7,,47.59359,-54.27349
2019-02-17 14:00:00+00:00,306.0,310.0,9.27,12.35,,47.59359,-54.27349
2019-02-17 14:10:00+00:00,307.0,307.0,10.43,11.49,,47.59359,-54.27349
2019-02-17 14:20:00+00:00,306.0,311.0,8.48,9.44,,47.59359,-54.27349
2019-02-17 14:30:00+00:00,308.0,316.0,8.57,13.33,,47.59359,-54.27349
2019-02-17 14:40:00+00:00,291.0,287.0,8.07,10.12,,47.59359,-54.27349
2019-02-17 14:50:00+00:00,299.0,302.0,11.04,13.92,,47.59359,-54.27349
2019-02-17 15:00:00+00:00,315.0,319.0,10.16,11.58,,47.59359,-54.27349
2019-02-17 15:10:00+00:00,310.0,311.0,11.05,12.4,,47.59359,-54.27349
2019-02-17 15:20:00+00:00,300.0,298.0,11.26,13.12,,47.59359,-54.27349
2019-02-17 15:30:00+00:00,311.0,320.0,9.63,10.59,,47.59359,-54.27349
2019-02-17 15:40:00+00:00,300.0,300.0,12.68,15.28,,47.59359,-54.27349
2019-02-17 15:50:00+00:00,293.0,299.0,12.38,15.68,,47.59359,-54.27349
2019-02-17 16:00:00+00:00,294.0,298.0,13.21,15.86,,47.59359,-54.27349
2019-02-17 16:10:00+00:00,294.0,298.0,11.81,13.68,,47.59359,-54.27349
2019-02-17 16:20:00+00:00,290.0,296.0,13.9,15.46,,47.59359,-54.27349
2019-02-17 16:30:00+00:00,294.0,294.0,15.25,17.02,,47.59359,-54.27349
2019-02-17 16:40:00+00:00,288.0,293.0,13.1,15.32,,47.59359,-54.27349
2019-02-17 16:50:00+00:00,288.0,289.0,11.4,12.9,,47.59359,-54.27349
2019-02-17 17:00:00+00:00,300.0,294.0,12.42,14.33,,47.59359,-54.27349
2019-02-17 17:10:00+00:00,300.0,294.0,12.42,13.74,,47.59359,-54.27349
2019-02-17 17:20:00+00:00,292.0,289.0,12.32,13.63,,47.59359,-54.27349
2019-02-17 17:30:00+00:00,297.0,290.0,11.67,13.55,,47.59359,-54.27349
2019-02-17 17:40:00+00:00,295.0,298.0,11.67,12.67,,47.59359,-54.27349
2019-02-17 17:50:00+00:00,293.0,300.0,9.67,11.25,,47.59359,-54.27349
2019-02-17 18:00:00+00:00,287.0,288.0,10.77,12.08,,47.59359,-54.27349
2019-02-17 18:10:00+00:00,290.0,286.0,9.89,11.92,,47.59359,-54.27349
2019-02-17 18:20:00+00:00,284.0,275.0,10.94,12.74,,47.59359,-54.27349
2019-02-17 18:30:00+00:00,288.0,291.0,10.65,12.67,,47.59359,-54.27349
2019-02-17 18:40:00+00:00,301.0,298.0,11.4,12.84,,47.59359,-54.27349
2019-02-17 18:50:00+00:00,295.0,294.0,10.81,11.98,,47.59359,-54.27349
2019-02-17 19:00:00+00:00,305.0,301.0,8.49,9.56,,47.59359,-54.27349
2019-02-17 19:10:00+00:00,296.0,291.0,8.89,10.4,,47.59359,-54.27349
2019-02-17 19:20:00+00:00,289.0,290.0,11.27,13.74,,47.59359,-54.27349
2019-02-17 19:30:00+00:00,289.0,289.0,10.21,11.92,,47.59359,-54.27349
2019-02-17 19:40:00+00:00,288.0,292.0,10.15,11.06,,47.59359,-54.27349
2019-02-17 19:50:00+00:00,294.0,297.0,11.1,12.38,,47.59359,-54.27349
2019-02-17 20:00:00+00:00,288.0,284.0,9.99,11.82,,47.59359,-54.27349
2019-02-17 20:10:00+00:00,304.0,304.0,8.87,9.7,,47.59359,-54.27349
2019-02-17 20:20:00+00:00,305.0,310.0,8.75,9.56,,47.59359,-54.27349
2019-02-17 20:30:00+00:00,300.0,300.0,9.19,10.21,,47.59359,-54.27349
2019-02-17 20:40:00+00:00,291.0,288.0,8.58,9.64,,47.59359,-54.27349
2019-02-17 20:50:00+00:00,281.0,277.0,9.58,10.93,,47.59359,-54.27349
2019-02-17 21:00:00+00:00,286.0,287.0,9.85,11.02,,47.59359,-54.27349
2019-02-17 21:10:00+00:00,279.0,284.0,8.74,9.4,,47.59359,-54.27349
2019-02-17 21:20:00+00:00,290.0,296.0,10.61,12.0,,47.59359,-54.27349
2019-02-17 21:30:00+00:00,287.0,290.0,9.15,10.42,,47.59359,-54.27349
2019-02-17 21:40:00+00:00,289.0,287.0,8.34,9.39,,47.59359,-54.27349
2019-02-17 21:50:00+00:00,294.0,299.0,8.69,10.03,,47.59359,-54.27349
2019-02-17 22:00:00+00:00,282.0,281.0,7.17,8.46,,47.59359,-54.27349
2019-02-17 22:10:00+00:00,293.0,301.0,8.96,10.58,,47.59359,-54.27349
2019-02-17 22:20:00+00:00,304.0,308.0,8.86,10.1,,47.59359,-54.27349
2019-02-17 22:30:00+00:00,295.0,294.0,7.55,8.99,,47.59359,-54.27349
2019-02-17 22:40:00+00:00,295.0,296.0,8.9,11.27,,47.59359,-54.27349
2019-02-17 22:50:00+00:00,291.0,289.0,7.46,8.45,,47.59359,-54.27349
2019-02-17 23:00:00+00:00,288.0,296.0,8.57,9.68,,47.59359,-54.27349
2019-02-17 23:10:00+00:00,289.0,285.0,8.8,10.35,,47.59359,-54.27349
2019-02-17 23:20:00+00:00,289.0,287.0,8.97,10.53,,47.59359,-54.27349
2019-02-17 23:30:00+00:00,299.0,301.0,8.23,9.7,,47.59359,-54.27349
2019-02-17 23:40:00+00:00,299.0,301.0,8.51,9.57,,47.59359,-54.27349
2019-02-17 23:50:00+00:00,299.0,297.0,7.57,8.52,,47.59359,-54.27349
